Private Wetterstation Wechselburg
Wetterdaten: Sonntag, 16.02.2014
Datum Zeit Temp. +2m Bodentemp. Temp.+5cm Temp. Wind Windchill X Diff Temp. Feuchte +2m Feuchte +5cm Sonnenschein Luftdruck Regen Wind Richtung Richtung Sonnenschein UV Taupunkt Windchill Windben
16.02.2014 00:00 7,4 C 14,4 C 6,8 C 7,0 C 6,2 C 0,0 C 80 % 87 % 0 % 1008,2 hPa 0,0 l/m 4,7 km/h (1 Bft) O-NO 67 0 min 0,0 UV-I 4,2 C 5,6 C 9,8 km/h (2 Bft)
16.02.2014 00:05 7,4 C 14,4 C 6,9 C 7,0 C 6,3 C 0,0 C 80 % 86 % 0 % 1008,2 hPa 0,0 l/m 4,5 km/h (1 Bft) O-SO 112 0 min 0,0 UV-I 4,2 C 6,3 C 6,3 km/h (2 Bft)
16.02.2014 00:10 7,3 C 14,4 C 6,8 C 6,9 C 6,0 C 0,0 C 80 % 86 % 0 % 1008,8 hPa 0,0 l/m 5,3 km/h (1 Bft) S 180 0 min 0,0 UV-I 4,1 C 5,1 C 6,3 km/h (2 Bft)
16.02.2014 00:15 7,2 C 14,4 C 6,8 C 6,8 C 6,0 C 0,0 C 80 % 86 % 0 % 1008,8 hPa 0,0 l/m 5,3 km/h (1 Bft) W 270 0 min 0,0 UV-I 4,0 C 5,1 C 3,5 km/h (1 Bft)
16.02.2014 00:20 7,3 C 14,4 C 6,7 C 6,8 C 5,9 C 0,0 C 80 % 86 % 0 % 1008,8 hPa 0,0 l/m 5,5 km/h (1 Bft) SO 135 0 min 0,0 UV-I 4,1 C 4,9 C 15,8 km/h (3 Bft)
16.02.2014 00:25 7,2 C 14,4 C 6,7 C 6,7 C 5,8 C 0,0 C 80 % 86 % 0 % 1008,8 hPa 0,0 l/m 5,8 km/h (2 Bft) O-SO 112 0 min 0,0 UV-I 4,0 C 4,7 C 7,7 km/h (2 Bft)
16.02.2014 00:30 7,2 C 14,4 C 6,7 C 6,7 C 5,8 C 0,0 C 80 % 86 % 0 % 1008,8 hPa 0,0 l/m 6,0 km/h (2 Bft) SO 135 0 min 0,0 UV-I 4,0 C 4,6 C 15,0 km/h (3 Bft)
16.02.2014 00:35 7,1 C 14,4 C 6,7 C 6,6 C 5,7 C 0,0 C 80 % 86 % 0 % 1008,8 hPa 0,0 l/m 6,1 km/h (2 Bft) SO 135 0 min 0,0 UV-I 3,9 C 4,5 C 13,5 km/h (3 Bft)
16.02.2014 00:41 7,1 C 14,4 C 6,7 C 6,7 C 5,8 C 0,0 C 80 % 86 % 0 % 1008,8 hPa 0,0 l/m 6,0 km/h (2 Bft) N 0 0 min 0,0 UV-I 3,9 C 4,6 C 9,0 km/h (2 Bft)
16.02.2014 01:00 7,2 C 14,4 C 6,7 C 6,7 C 5,8 C 0,0 C 80 % 85 % 0 % 1008,6 hPa 0,0 l/m 6,1 km/h (2 Bft) O-SO 112 0 min 0,0 UV-I 4,0 C 4,6 C 6,3 km/h (2 Bft)
16.02.2014 01:05 7,2 C 14,4 C 6,7 C 6,8 C 6,0 C 0,0 C 80 % 85 % 0 % 1008,6 hPa 0,0 l/m 5,6 km/h (1 Bft) O-SO 112 0 min 0,0 UV-I 4,0 C 5,0 C 8,7 km/h (2 Bft)
16.02.2014 01:10 7,2 C 14,4 C 6,7 C 6,9 C 6,2 C 0,0 C 80 % 85 % 0 % 1009,1 hPa 0,0 l/m 5,1 km/h (1 Bft) SO 135 0 min 0,0 UV-I 4,0 C 5,4 C 6,4 km/h (2 Bft)
16.02.2014 01:15 7,1 C 14,4 C 6,7 C 6,8 C 6,2 C 0,0 C 80 % 85 % 0 % 1009,1 hPa 0,0 l/m 5,0 km/h (1 Bft) O 90 0 min 0,0 UV-I 3,9 C 5,4 C 7,1 km/h (2 Bft)
16.02.2014 01:20 7,2 C 14,3 C 6,7 C 6,9 C 6,2 C 0,0 C 80 % 85 % 0 % 1009,1 hPa 0,0 l/m 5,5 km/h (1 Bft) W-SW 247 0 min 0,0 UV-I 4,0 C 5,3 C 7,9 km/h (2 Bft)
16.02.2014 01:25 7,2 C 14,3 C 6,7 C 6,8 C 5,9 C 0,0 C 80 % 85 % 0 % 1009,1 hPa 0,0 l/m 6,3 km/h (2 Bft) SO 135 0 min 0,0 UV-I 4,0 C 4,7 C 9,8 km/h (2 Bft)
16.02.2014 01:30 7,2 C 14,3 C 6,8 C 6,8 C 6,1 C 0,0 C 79 % 85 % 0 % 1009,0 hPa 0,0 l/m 6,3 km/h (2 Bft) SO 135 0 min 0,0 UV-I 3,8 C 4,9 C 5,0 km/h (1 Bft)
16.02.2014 01:35 7,2 C 14,3 C 6,8 C 6,9 C 6,3 C 0,0 C 79 % 85 % 0 % 1009,0 hPa 0,0 l/m 5,6 km/h (1 Bft) NO 45 0 min 0,0 UV-I 3,8 C 5,3 C 5,8 km/h (2 Bft)
16.02.2014 01:40 7,2 C 14,3 C 6,8 C 7,0 C 6,7 C 0,0 C 79 % 85 % 0 % 1009,0 hPa 0,0 l/m 4,5 km/h (1 Bft) O-NO 67 0 min 0,0 UV-I 3,8 C 6,7 C 4,5 km/h (1 Bft)
16.02.2014 01:45 7,2 C 14,3 C 6,8 C 7,0 C 6,5 C 0,0 C 79 % 85 % 0 % 1009,0 hPa 0,0 l/m 4,8 km/h (1 Bft) SO 135 0 min 0,0 UV-I 3,8 C 5,9 C 7,1 km/h (2 Bft)
16.02.2014 01:50 7,3 C 14,3 C 6,9 C 7,0 C 6,3 C 0,0 C 79 % 85 % 0 % 1008,9 hPa 0,0 l/m 5,3 km/h (1 Bft) W-NW 292 0 min 0,0 UV-I 3,9 C 5,5 C 6,8 km/h (2 Bft)
16.02.2014 01:55 7,2 C 14,3 C 6,8 C 6,9 C 6,3 C 0,0 C 79 % 85 % 0 % 1008,9 hPa 0,0 l/m 5,5 km/h (1 Bft) O-SO 112 0 min 0,0 UV-I 3,8 C 5,4 C 5,8 km/h (2 Bft)
16.02.2014 02:00 7,3 C 14,3 C 6,8 C 7,0 C 6,3 C 0,0 C 79 % 84 % 0 % 1008,9 hPa 0,0 l/m 5,5 km/h (1 Bft) SO 135 0 min 0,0 UV-I 3,9 C 5,4 C 4,7 km/h (1 Bft)
16.02.2014 02:05 7,3 C 14,3 C 6,8 C 7,0 C 6,3 C 0,0 C 79 % 84 % 0 % 1008,9 hPa 0,0 l/m 5,5 km/h (1 Bft) NW 315 0 min 0,0 UV-I 3,9 C 5,4 C 9,7 km/h (2 Bft)
16.02.2014 02:10 7,3 C 14,3 C 6,8 C 7,0 C 6,4 C 0,0 C 79 % 84 % 0 % 1008,8 hPa 0,0 l/m 5,0 km/h (1 Bft) W 270 0 min 0,0 UV-I 3,9 C 5,7 C 6,8 km/h (2 Bft)
16.02.2014 02:15 7,4 C 14,3 C 6,8 C 7,1 C 6,5 C 0,0 C 79 % 84 % 0 % 1008,8 hPa 0,0 l/m 4,8 km/h (1 Bft) SO 135 0 min 0,0 UV-I 4,0 C 5,9 C 4,2 km/h (1 Bft)
16.02.2014 02:20 7,3 C 14,3 C 6,7 C 7,0 C 6,3 C 0,0 C 79 % 84 % 0 % 1008,8 hPa 0,0 l/m 4,3 km/h (1 Bft) O-NO 67 0 min 0,0 UV-I 3,9 C 6,3 C 9,0 km/h (2 Bft)
16.02.2014 02:25 7,2 C 14,3 C 6,6 C 6,9 C 6,4 C 0,0 C 79 % 84 % 0 % 1008,8 hPa 0,0 l/m 4,2 km/h (1 Bft) O 90 0 min 0,0 UV-I 3,8 C 6,4 C 4,7 km/h (1 Bft)
16.02.2014 02:30 7,2 C 14,3 C 6,5 C 6,8 C 6,1 C 0,0 C 79 % 84 % 0 % 1008,6 hPa 0,0 l/m 4,5 km/h (1 Bft) SO 135 0 min 0,0 UV-I 3,8 C 6,1 C 8,2 km/h (2 Bft)
16.02.2014 02:35 7,2 C 14,3 C 6,5 C 6,8 C 5,9 C 0,0 C 79 % 84 % 0 % 1008,6 hPa 0,0 l/m 5,0 km/h (1 Bft) SW 225 0 min 0,0 UV-I 3,8 C 5,1 C 6,1 km/h (2 Bft)
16.02.2014 02:40 7,1 C 14,3 C 6,4 C 6,5 C 5,4 C 0,0 C 79 % 84 % 0 % 1008,6 hPa 0,0 l/m 6,1 km/h (2 Bft) O 90 0 min 0,0 UV-I 3,7 C 4,2 C 7,1 km/h (2 Bft)
16.02.2014 02:45 7,1 C 14,3 C 6,4 C 6,5 C 5,4 C 0,0 C 79 % 84 % 0 % 1008,6 hPa 0,0 l/m 6,1 km/h (2 Bft) W-SW 247 0 min 0,0 UV-I 3,7 C 4,2 C 6,9 km/h (2 Bft)
16.02.2014 02:50 7,1 C 14,3 C 6,5 C 6,6 C 5,5 C 0,0 C 79 % 84 % 0 % 1008,6 hPa 0,0 l/m 5,8 km/h (2 Bft) SO 135 0 min 0,0 UV-I 3,7 C 4,4 C 8,9 km/h (2 Bft)
16.02.2014 02:55 7,1 C 14,3 C 6,4 C 6,6 C 5,5 C 0,0 C 79 % 84 % 0 % 1008,6 hPa 0,0 l/m 6,1 km/h (2 Bft) SW 225 0 min 0,0 UV-I 3,7 C 4,3 C 7,7 km/h (2 Bft)
16.02.2014 03:00 7,1 C 14,3 C 6,5 C 6,4 C 5,1 C 0,0 C 79 % 84 % 0 % 1008,6 hPa 0,0 l/m 7,6 km/h (2 Bft) W 270 0 min 0,0 UV-I 3,7 C 3,4 C 16,3 km/h (3 Bft)
16.02.2014 03:05 7,1 C 14,3 C 6,4 C 6,5 C 5,2 C 0,0 C 79 % 84 % 0 % 1008,6 hPa 0,0 l/m 7,6 km/h (2 Bft) SO 135 0 min 0,0 UV-I 3,7 C 3,5 C 6,0 km/h (2 Bft)
16.02.2014 03:10 7,1 C 14,3 C 6,4 C 6,5 C 5,2 C 0,0 C 79 % 84 % 0 % 1008,9 hPa 0,0 l/m 7,9 km/h (2 Bft) W-NW 292 0 min 0,0 UV-I 3,7 C 3,4 C 2,9 km/h (1 Bft)
16.02.2014 03:15 7,1 C 14,3 C 6,4 C 6,6 C 5,1 C 0,0 C 79 % 84 % 0 % 1008,9 hPa 0,0 l/m 8,4 km/h (2 Bft) SO 135 0 min 0,0 UV-I 3,7 C 3,1 C 16,6 km/h (3 Bft)
16.02.2014 03:20 7,1 C 14,2 C 6,4 C 6,5 C 5,4 C 0,0 C 79 % 84 % 0 % 1008,9 hPa 0,0 l/m 7,2 km/h (2 Bft) S 180 0 min 0,0 UV-I 3,7 C 3,8 C 18,2 km/h (3 Bft)
16.02.2014 03:25 7,1 C 14,2 C 6,4 C 6,5 C 5,4 C 0,0 C 79 % 84 % 0 % 1008,9 hPa 0,0 l/m 7,1 km/h (2 Bft) W 270 0 min 0,0 UV-I 3,7 C 3,8 C 12,1 km/h (2 Bft)
16.02.2014 03:30 7,1 C 14,2 C 6,4 C 6,6 C 5,5 C 0,0 C 79 % 83 % 0 % 1008,5 hPa 0,0 l/m 6,9 km/h (2 Bft) S 180 0 min 0,0 UV-I 3,7 C 4,0 C 12,7 km/h (3 Bft)
16.02.2014 03:35 7,1 C 14,2 C 6,4 C 6,5 C 5,4 C 0,0 C 78 % 83 % 0 % 1008,5 hPa 0,0 l/m 7,1 km/h (2 Bft) O 90 0 min 0,0 UV-I 3,5 C 3,8 C 12,9 km/h (3 Bft)
16.02.2014 03:40 7,1 C 14,2 C 6,4 C 6,6 C 5,1 C 0,0 C 78 % 83 % 0 % 1008,5 hPa 0,0 l/m 8,4 km/h (2 Bft) S-SW 202 0 min 0,0 UV-I 3,5 C 3,1 C 20,1 km/h (4 Bft)
16.02.2014 03:45 7,1 C 14,2 C 6,4 C 6,6 C 4,7 C 0,0 C 78 % 83 % 0 % 1008,5 hPa 0,0 l/m 11,1 km/h (2 Bft) S-SW 202 0 min 0,0 UV-I 3,5 C 2,1 C 16,6 km/h (3 Bft)
16.02.2014 03:50 7,1 C 14,2 C 6,5 C 6,5 C 4,2 C 0,0 C 78 % 83 % 0 % 1008,8 hPa 0,0 l/m 13,7 km/h (3 Bft) SW 225 0 min 0,0 UV-I 3,5 C 1,0 C 23,8 km/h (4 Bft)
16.02.2014 03:55 7,1 C 14,2 C 6,4 C 6,4 C 4,1 C 0,0 C 78 % 83 % 0 % 1008,8 hPa 0,0 l/m 14,3 km/h (3 Bft) S 180 0 min 0,0 UV-I 3,5 C 0,8 C 22,0 km/h (4 Bft)
16.02.2014 04:00 7,1 C 14,2 C 6,4 C 6,4 C 4,2 C 0,0 C 78 % 83 % 0 % 1008,8 hPa 0,0 l/m 14,2 km/h (3 Bft) S 180 0 min 0,0 UV-I 3,5 C 0,9 C 24,6 km/h (4 Bft)
16.02.2014 04:05 7,1 C 14,2 C 6,3 C 6,1 C 4,2 C 0,0 C 78 % 83 % 0 % 1008,8 hPa 0,0 l/m 13,4 km/h (3 Bft) S 180 0 min 0,0 UV-I 3,5 C 1,0 C 17,2 km/h (3 Bft)
16.02.2014 04:10 7,0 C 14,2 C 6,3 C 6,1 C 4,2 C 0,0 C 78 % 83 % 0 % 1008,8 hPa 0,0 l/m 13,0 km/h (3 Bft) S 180 0 min 0,0 UV-I 3,4 C 1,1 C 15,9 km/h (3 Bft)
16.02.2014 04:15 7,0 C 14,2 C 6,3 C 6,3 C 4,1 C 0,0 C 78 % 83 % 0 % 1008,8 hPa 0,0 l/m 13,7 km/h (3 Bft) SW 225 0 min 0,0 UV-I 3,4 C 0,9 C 19,6 km/h (3 Bft)
16.02.2014 04:20 6,9 C 14,2 C 6,3 C 6,0 C 4,1 C 0,0 C 79 % 83 % 0 % 1008,8 hPa 0,0 l/m 13,4 km/h (3 Bft) S 180 0 min 0,0 UV-I 3,5 C 0,9 C 18,5 km/h (3 Bft)
16.02.2014 04:25 6,9 C 14,2 C 6,2 C 6,3 C 4,2 C 0,0 C 79 % 83 % 0 % 1008,8 hPa 0,0 l/m 13,0 km/h (3 Bft) S 180 0 min 0,0 UV-I 3,5 C 1,1 C 18,2 km/h (3 Bft)
16.02.2014 04:30 6,9 C 14,2 C 6,2 C 6,2 C 4,0 C 0,0 C 79 % 83 % 0 % 1008,9 hPa 0,0 l/m 13,2 km/h (3 Bft) S 180 0 min 0,0 UV-I 3,5 C 0,8 C 16,1 km/h (3 Bft)
16.02.2014 04:35 6,8 C 14,2 C 6,1 C 6,2 C 4,2 C 0,0 C 79 % 83 % 0 % 1008,9 hPa 0,0 l/m 12,2 km/h (2 Bft) N-NW 337 0 min 0,0 UV-I 3,4 C 1,2 C 19,3 km/h (3 Bft)
16.02.2014 04:40 6,8 C 14,2 C 6,0 C 6,2 C 4,4 C 0,0 C 79 % 83 % 0 % 1008,9 hPa 0,0 l/m 10,1 km/h (2 Bft) N-NO 22 0 min 0,0 UV-I 3,4 C 1,9 C 10,1 km/h (2 Bft)
16.02.2014 04:45 6,7 C 14,2 C 6,1 C 6,2 C 4,8 C 0,0 C 79 % 83 % 0 % 1008,9 hPa 0,0 l/m 7,9 km/h (2 Bft) W 270 0 min 0,0 UV-I 3,3 C 2,9 C 3,5 km/h (1 Bft)
16.02.2014 04:50 6,7 C 14,2 C 6,1 C 6,4 C 5,7 C 0,0 C 79 % 83 % 0 % 1009,4 hPa 0,0 l/m 4,7 km/h (1 Bft) W-SW 247 0 min 0,0 UV-I 3,3 C 5,0 C 8,7 km/h (2 Bft)
16.02.2014 04:55 6,8 C 14,2 C 6,1 C 6,4 C 5,7 C 0,0 C 79 % 83 % 0 % 1009,4 hPa 0,0 l/m 4,3 km/h (1 Bft) S-SO 157 0 min 0,0 UV-I 3,4 C 5,7 C 4,7 km/h (1 Bft)
16.02.2014 05:00 6,7 C 14,2 C 6,1 C 6,3 C 5,5 C 0,0 C 78 % 83 % 0 % 1009,4 hPa 0,0 l/m 4,5 km/h (1 Bft) SW 225 0 min 0,0 UV-I 3,1 C 5,5 C 12,6 km/h (3 Bft)
16.02.2014 05:05 6,7 C 14,2 C 6,1 C 6,3 C 5,4 C 0,0 C 78 % 83 % 0 % 1009,4 hPa 0,0 l/m 4,7 km/h (1 Bft) N-NW 337 0 min 0,0 UV-I 3,1 C 4,7 C 10,8 km/h (2 Bft)
16.02.2014 05:10 6,7 C 14,2 C 6,1 C 6,2 C 5,3 C 0,0 C 78 % 83 % 0 % 1008,9 hPa 0,0 l/m 5,1 km/h (1 Bft) W-SW 247 0 min 0,0 UV-I 3,1 C 4,4 C 2,4 km/h (1 Bft)
16.02.2014 05:15 6,7 C 14,2 C 6,0 C 6,2 C 5,3 C 0,0 C 78 % 82 % 0 % 1008,9 hPa 0,0 l/m 5,1 km/h (1 Bft) N-NW 337 0 min 0,0 UV-I 3,1 C 4,4 C 4,8 km/h (1 Bft)
16.02.2014 05:20 6,7 C 14,2 C 5,9 C 6,1 C 5,0 C 0,0 C 78 % 83 % 0 % 1008,9 hPa 0,0 l/m 6,0 km/h (2 Bft) S 180 0 min 0,0 UV-I 3,1 C 3,7 C 5,0 km/h (1 Bft)
16.02.2014 05:25 6,7 C 14,1 C 5,9 C 6,1 C 4,9 C 0,0 C 78 % 83 % 0 % 1008,9 hPa 0,0 l/m 6,3 km/h (2 Bft) S-SW 202 0 min 0,0 UV-I 3,1 C 3,5 C 16,9 km/h (3 Bft)
16.02.2014 05:30 6,7 C 14,1 C 6,1 C 6,2 C 5,1 C 0,0 C 78 % 82 % 0 % 1009,4 hPa 0,0 l/m 5,6 km/h (1 Bft) NO 45 0 min 0,0 UV-I 3,1 C 4,0 C 8,2 km/h (2 Bft)
16.02.2014 05:35 6,6 C 14,1 C 6,0 C 6,1 C 5,1 C 0,0 C 78 % 82 % 0 % 1009,4 hPa 0,0 l/m 5,6 km/h (1 Bft) S 180 0 min 0,0 UV-I 3,0 C 4,0 C 12,1 km/h (2 Bft)
16.02.2014 05:40 6,6 C 14,1 C 5,9 C 5,9 C 4,6 C 0,0 C 78 % 82 % 0 % 1009,4 hPa 0,0 l/m 7,2 km/h (2 Bft) N 360 0 min 0,0 UV-I 3,0 C 2,9 C 13,4 km/h (3 Bft)
16.02.2014 05:45 6,6 C 14,1 C 5,9 C 6,1 C 4,2 C 0,0 C 78 % 82 % 0 % 1009,4 hPa 0,0 l/m 8,9 km/h (2 Bft) S 180 0 min 0,0 UV-I 3,0 C 2,0 C 10,6 km/h (2 Bft)
16.02.2014 05:50 6,5 C 14,1 C 5,9 C 5,9 C 4,1 C 0,0 C 78 % 82 % 0 % 1009,6 hPa 0,0 l/m 9,3 km/h (2 Bft) S-SW 202 0 min 0,0 UV-I 2,9 C 1,7 C 14,5 km/h (3 Bft)
16.02.2014 05:55 6,5 C 14,1 C 5,9 C 5,9 C 4,3 C 0,0 C 78 % 82 % 0 % 1009,6 hPa 0,0 l/m 8,7 km/h (2 Bft) S 180 0 min 0,0 UV-I 2,9 C 2,1 C 8,7 km/h (2 Bft)
16.02.2014 06:00 6,5 C 14,1 C 5,7 C 5,9 C 3,8 C 0,0 C 78 % 82 % 0 % 1009,6 hPa 0,0 l/m 10,6 km/h (2 Bft) S 180 0 min 0,0 UV-I 2,9 C 1,1 C 11,3 km/h (2 Bft)
16.02.2014 06:05 6,5 C 14,1 C 5,7 C 5,6 C 3,8 C 0,0 C 78 % 82 % 0 % 1009,6 hPa 0,0 l/m 10,6 km/h (2 Bft) SW 225 0 min 0,0 UV-I 2,9 C 1,1 C 15,3 km/h (3 Bft)
16.02.2014 06:10 6,5 C 14,1 C 5,7 C 5,9 C 4,0 C 0,0 C 78 % 82 % 0 % 1009,4 hPa 0,0 l/m 10,0 km/h (2 Bft) S-SW 202 0 min 0,0 UV-I 2,9 C 1,5 C 10,9 km/h (2 Bft)
16.02.2014 06:15 6,4 C 14,1 C 5,7 C 5,8 C 4,1 C 0,0 C 78 % 82 % 0 % 1009,4 hPa 0,0 l/m 9,3 km/h (2 Bft) S 180 0 min 0,0 UV-I 2,8 C 1,7 C 6,1 km/h (2 Bft)
16.02.2014 06:20 6,4 C 14,1 C 5,6 C 5,9 C 4,4 C 0,0 C 78 % 82 % 0 % 1009,4 hPa 0,0 l/m 8,0 km/h (2 Bft) O-SO 112 0 min 0,0 UV-I 2,8 C 2,4 C 10,1 km/h (2 Bft)
16.02.2014 06:25 6,4 C 14,1 C 5,6 C 5,8 C 4,7 C 0,0 C 78 % 82 % 0 % 1009,4 hPa 0,0 l/m 6,9 km/h (2 Bft) SW 225 0 min 0,0 UV-I 2,8 C 3,1 C 11,9 km/h (2 Bft)
16.02.2014 06:30 6,4 C 14,1 C 5,7 C 5,9 C 4,8 C 0,0 C 78 % 82 % 0 % 1009,6 hPa 0,0 l/m 6,1 km/h (2 Bft) W-NW 292 0 min 0,0 UV-I 2,8 C 3,5 C 18,0 km/h (3 Bft)
16.02.2014 06:35 6,5 C 14,1 C 5,7 C 5,9 C 4,7 C 0,0 C 77 % 82 % 0 % 1009,6 hPa 0,0 l/m 6,8 km/h (2 Bft) S 180 0 min 0,0 UV-I 2,8 C 3,1 C 8,9 km/h (2 Bft)
16.02.2014 06:41 6,5 C 14,1 C 5,6 C 6,0 C 4,3 C 0,0 C 77 % 81 % 0 % 1009,6 hPa 0,0 l/m 8,4 km/h (2 Bft) N 0 0 min 0,0 UV-I 2,8 C 2,2 C 18,0 km/h (3 Bft)
16.02.2014 06:59 6,5 C 14,1 C 5,7 C 5,9 C 4,6 C 0,0 C 77 % 81 % 0 % 1009,4 hPa 0,0 l/m 6,9 km/h (2 Bft) W-SW 247 0 min 0,0 UV-I 2,8 C 3,0 C 10,6 km/h (2 Bft)
16.02.2014 07:00 6,5 C 14,1 C 5,7 C 5,9 C 4,6 C 0,0 C 77 % 81 % 0 % 1009,4 hPa 0,0 l/m 6,9 km/h (2 Bft) W-SW 247 0 min 0,0 UV-I 2,8 C 3,0 C 10,6 km/h (2 Bft)
16.02.2014 07:05 6,4 C 14,0 C 5,7 C 5,8 C 4,7 C 0,0 C 77 % 81 % 0 % 1009,4 hPa 0,0 l/m 6,4 km/h (2 Bft) S 180 0 min 0,0 UV-I 2,7 C 3,2 C 6,4 km/h (2 Bft)
16.02.2014 07:10 6,4 C 14,0 C 5,7 C 6,0 C 5,1 C 0,0 C 77 % 81 % 0 % 1009,4 hPa 0,0 l/m 5,1 km/h (1 Bft) O-SO 112 0 min 0,0 UV-I 2,7 C 4,2 C 2,9 km/h (1 Bft)
16.02.2014 07:15 6,4 C 14,0 C 5,7 C 6,0 C 5,2 C 0,0 C 77 % 81 % 0 % 1009,4 hPa 0,0 l/m 4,5 km/h (1 Bft) N-NO 22 0 min 0,0 UV-I 2,7 C 5,2 C 10,9 km/h (2 Bft)
16.02.2014 07:20 6,5 C 14,0 C 5,8 C 5,9 C 4,8 C 0,0 C 76 % 80 % 0 % 1009,4 hPa 0,0 l/m 5,3 km/h (1 Bft) W-SW 247 0 min 0,0 UV-I 2,6 C 3,7 C 9,0 km/h (2 Bft)
16.02.2014 07:25 6,5 C 14,0 C 5,7 C 5,9 C 4,8 C 0,0 C 76 % 80 % 0 % 1009,4 hPa 0,0 l/m 5,8 km/h (2 Bft) W-SW 247 0 min 0,0 UV-I 2,6 C 3,6 C 4,5 km/h (1 Bft)
16.02.2014 07:30 6,4 C 14,0 C 5,7 C 5,9 C 4,9 C 0,0 C 76 % 80 % 0 % 1009,4 hPa 0,0 l/m 5,5 km/h (1 Bft) SW 225 0 min 0,0 UV-I 2,5 C 3,8 C 7,1 km/h (2 Bft)
16.02.2014 07:35 6,4 C 14,0 C 5,7 C 5,9 C 4,9 C 0,0 C 76 % 80 % 0 % 1009,4 hPa 0,0 l/m 5,8 km/h (2 Bft) N-NO 22 0 min 0,0 UV-I 2,5 C 3,7 C 7,7 km/h (2 Bft)
16.02.2014 07:40 6,4 C 14,0 C 5,6 C 5,9 C 4,8 C 0,0 C 76 % 80 % 0 % 1009,4 hPa 0,0 l/m 6,6 km/h (2 Bft) S-SW 202 0 min 0,0 UV-I 2,5 C 3,3 C 2,3 km/h (1 Bft)
16.02.2014 07:45 6,4 C 14,0 C 5,7 C 5,8 C 4,7 C 0,0 C 76 % 80 % 0 % 1009,4 hPa 0,0 l/m 7,1 km/h (2 Bft) O-SO 112 0 min 0,0 UV-I 2,5 C 3,0 C 4,8 km/h (1 Bft)
16.02.2014 07:50 6,4 C 14,0 C 5,6 C 6,0 C 5,1 C 0,0 C 76 % 80 % 0 % 1009,8 hPa 0,0 l/m 5,8 km/h (2 Bft) S-SO 157 0 min 0,0 UV-I 2,5 C 3,9 C 10,5 km/h (2 Bft)
16.02.2014 07:55 6,4 C 14,0 C 5,6 C 6,0 C 5,2 C 0,0 C 76 % 80 % 0 % 1009,8 hPa 0,0 l/m 5,3 km/h (1 Bft) SW 225 0 min 0,0 UV-I 2,5 C 4,2 C 10,5 km/h (2 Bft)
16.02.2014 08:00 6,4 C 14,0 C 5,6 C 5,9 C 4,9 C 0,0 C 76 % 80 % 0 % 1009,8 hPa 0,0 l/m 6,4 km/h (2 Bft) S 180 0 min 0,0 UV-I 2,5 C 3,5 C 11,3 km/h (2 Bft)
16.02.2014 08:05 6,4 C 14,0 C 5,6 C 5,9 C 4,9 C 0,0 C 76 % 80 % 0 % 1009,8 hPa 0,0 l/m 6,4 km/h (2 Bft) SO 135 0 min 0,0 UV-I 2,5 C 3,5 C 2,9 km/h (1 Bft)
16.02.2014 08:10 6,4 C 14,0 C 5,7 C 6,0 C 5,2 C 0,0 C 76 % 80 % 0 % 1010,0 hPa 0,0 l/m 5,6 km/h (1 Bft) S 180 0 min 0,0 UV-I 2,5 C 4,1 C 7,1 km/h (2 Bft)
16.02.2014 08:15 6,4 C 14,0 C 5,8 C 6,0 C 5,2 C 0,0 C 76 % 80 % 0 % 1010,0 hPa 0,0 l/m 5,8 km/h (2 Bft) SW 225 0 min 0,0 UV-I 2,5 C 4,0 C 14,8 km/h (3 Bft)
16.02.2014 08:20 6,5 C 14,0 C 5,9 C 6,1 C 5,2 C 0,0 C 76 % 80 % 0 % 1010,0 hPa 0,0 l/m 6,3 km/h (2 Bft) O-NO 67 0 min 0,0 UV-I 2,6 C 3,9 C 5,5 km/h (1 Bft)
16.02.2014 08:25 6,5 C 14,0 C 5,9 C 6,2 C 5,6 C 0,0 C 75 % 79 % 0 % 1010,0 hPa 0,0 l/m 5,3 km/h (1 Bft) S-SO 157 0 min 0,0 UV-I 2,4 C 4,7 C 10,3 km/h (2 Bft)
16.02.2014 08:30 6,7 C 14,0 C 6,0 C 6,4 C 5,7 C 0,0 C 75 % 79 % 0 % 1010,2 hPa 0,0 l/m 5,5 km/h (1 Bft) S 180 0 min 0,0 UV-I 2,6 C 4,7 C 10,8 km/h (2 Bft)
16.02.2014 08:35 6,6 C 14,0 C 6,0 C 6,3 C 5,8 C 0,0 C 75 % 79 % 0 % 1010,2 hPa 0,0 l/m 5,8 km/h (2 Bft) NO 45 0 min 0,0 UV-I 2,5 C 4,7 C 6,9 km/h (2 Bft)
16.02.2014 08:40 6,7 C 14,0 C 6,1 C 6,4 C 5,9 C 0,0 C 75 % 78 % 0 % 1010,2 hPa 0,0 l/m 5,6 km/h (1 Bft) W 270 0 min 0,0 UV-I 2,6 C 4,9 C 3,2 km/h (1 Bft)
16.02.2014 08:45 6,7 C 14,0 C 6,1 C 6,5 C 6,1 C 0,0 C 75 % 78 % 0 % 1010,2 hPa 0,0 l/m 5,0 km/h (1 Bft) W-SW 247 0 min 0,0 UV-I 2,6 C 5,3 C 5,5 km/h (1 Bft)
16.02.2014 08:50 6,8 C 14,0 C 6,3 C 6,6 C 6,2 C 0,0 C 75 % 78 % 0 % 1010,3 hPa 0,0 l/m 5,5 km/h (1 Bft) O-SO 112 0 min 0,0 UV-I 2,7 C 5,3 C 6,4 km/h (2 Bft)
16.02.2014 08:55 6,8 C 14,0 C 6,5 C 6,6 C 6,2 C 0,0 C 74 % 78 % 0 % 1010,3 hPa 0,0 l/m 6,0 km/h (2 Bft) S 180 0 min 0,0 UV-I 2,5 C 5,1 C 15,9 km/h (3 Bft)
16.02.2014 09:00 6,9 C 14,0 C 6,4 C 6,6 C 5,9 C 0,0 C 74 % 77 % 0 % 1010,3 hPa 0,0 l/m 6,8 km/h (2 Bft) O-SO 112 0 min 0,0 UV-I 2,6 C 4,5 C 4,2 km/h (1 Bft)
16.02.2014 09:05 6,9 C 14,0 C 6,4 C 6,6 C 5,9 C 0,0 C 74 % 77 % 0 % 1010,3 hPa 0,0 l/m 7,6 km/h (2 Bft) SO 135 0 min 0,0 UV-I 2,6 C 4,3 C 9,7 km/h (2 Bft)
16.02.2014 09:10 7,1 C 13,9 C 6,5 C 6,8 C 5,7 C 0,0 C 74 % 77 % 0 % 1010,6 hPa 0,0 l/m 8,5 km/h (2 Bft) O-SO 112 0 min 0,0 UV-I 2,8 C 3,8 C 4,3 km/h (1 Bft)
16.02.2014 09:15 7,1 C 13,9 C 6,7 C 6,8 C 5,8 C 0,0 C 74 % 77 % 0 % 1010,6 hPa 0,0 l/m 8,4 km/h (2 Bft) S 180 0 min 0,0 UV-I 2,8 C 4,0 C 11,1 km/h (2 Bft)
16.02.2014 09:20 7,1 C 13,9 C 6,7 C 6,9 C 6,1 C 0,0 C 73 % 77 % 0 % 1010,6 hPa 0,0 l/m 7,9 km/h (2 Bft) O-NO 67 0 min 0,0 UV-I 2,6 C 4,5 C 6,8 km/h (2 Bft)
16.02.2014 09:25 7,2 C 13,9 C 6,9 C 6,8 C 6,1 C 0,0 C 73 % 76 % 0 % 1010,6 hPa 0,0 l/m 8,4 km/h (2 Bft) SO 135 0 min 0,0 UV-I 2,7 C 4,3 C 6,4 km/h (2 Bft)
16.02.2014 09:30 7,2 C 13,9 C 7,0 C 7,0 C 6,2 C 0,0 C 73 % 76 % 0 % 1010,5 hPa 0,0 l/m 8,5 km/h (2 Bft) O-SO 112 0 min 0,0 UV-I 2,7 C 4,4 C 18,3 km/h (3 Bft)
16.02.2014 09:35 7,2 C 13,9 C 7,1 C 7,0 C 6,1 C 0,0 C 73 % 76 % 0 % 1010,5 hPa 0,0 l/m 9,7 km/h (2 Bft) S 180 0 min 0,0 UV-I 2,7 C 4,0 C 9,8 km/h (2 Bft)
16.02.2014 09:40 7,3 C 13,9 C 7,2 C 7,1 C 5,9 C 0,0 C 72 % 76 % 0 % 1010,5 hPa 0,0 l/m 10,8 km/h (2 Bft) S 180 0 min 0,0 UV-I 2,6 C 3,6 C 25,9 km/h (4 Bft)
16.02.2014 09:45 7,3 C 13,9 C 7,2 C 7,1 C 6,2 C 0,0 C 73 % 76 % 0 % 1010,5 hPa 0,0 l/m 9,5 km/h (2 Bft) O-SO 112 0 min 0,0 UV-I 2,8 C 4,2 C 10,5 km/h (2 Bft)
16.02.2014 09:50 7,5 C 13,9 C 7,4 C 7,3 C 6,7 C 0,0 C 73 % 76 % 0 % 1010,7 hPa 0,0 l/m 8,2 km/h (2 Bft) SW 225 0 min 0,0 UV-I 3,0 C 5,1 C 6,6 km/h (2 Bft)
16.02.2014 09:55 7,4 C 13,9 C 7,5 C 7,3 C 6,8 C 0,0 C 73 % 75 % 0 % 1010,7 hPa 0,0 l/m 8,7 km/h (2 Bft) S 180 0 min 0,0 UV-I 2,9 C 5,1 C 18,3 km/h (3 Bft)
16.02.2014 10:00 7,6 C 13,8 C 7,5 C 7,5 C 6,9 C 0,0 C 72 % 76 % 0 % 1010,7 hPa 0,0 l/m 9,3 km/h (2 Bft) SW 225 0 min 0,0 UV-I 2,9 C 5,1 C 33,6 km/h (5 Bft)
16.02.2014 10:05 7,7 C 13,8 C 7,6 C 7,6 C 7,0 C 0,0 C 72 % 75 % 0 % 1010,7 hPa 0,0 l/m 10,0 km/h (2 Bft) W-SW 247 0 min 0,0 UV-I 3,0 C 5,0 C 11,3 km/h (2 Bft)
16.02.2014 10:10 7,6 C 13,8 C 7,6 C 7,6 C 7,3 C 0,0 C 72 % 75 % 0 % 1010,8 hPa 0,0 l/m 8,5 km/h (2 Bft) S 180 0 min 0,0 UV-I 2,9 C 5,7 C 12,1 km/h (2 Bft)
16.02.2014 10:15 7,7 C 13,8 C 7,6 C 7,6 C 7,4 C 0,0 C 72 % 75 % 0 % 1010,8 hPa 0,0 l/m 7,6 km/h (2 Bft) S-SO 157 0 min 0,0 UV-I 3,0 C 6,0 C 8,0 km/h (2 Bft)
16.02.2014 10:20 7,8 C 13,8 C 7,8 C 7,8 C 7,2 C 0,0 C 71 % 74 % 0 % 1010,8 hPa 0,0 l/m 9,7 km/h (2 Bft) W-SW 247 0 min 0,0 UV-I 2,9 C 5,3 C 28,3 km/h (4 Bft)
16.02.2014 10:25 7,8 C 13,8 C 7,9 C 7,8 C 7,1 C 0,0 C 71 % 74 % 0 % 1010,8 hPa 0,0 l/m 10,6 km/h (2 Bft) S 180 0 min 0,0 UV-I 2,9 C 5,1 C 15,9 km/h (3 Bft)
16.02.2014 10:30 7,9 C 13,8 C 8,0 C 7,9 C 7,3 C 0,0 C 71 % 74 % 0 % 1010,9 hPa 0,0 l/m 10,1 km/h (2 Bft) SW 225 0 min 0,0 UV-I 3,0 C 5,4 C 20,4 km/h (4 Bft)
16.02.2014 10:35 8,1 C 13,8 C 8,0 C 7,8 C 7,3 C 0,0 C 70 % 74 % 0 % 1010,9 hPa 0,0 l/m 10,9 km/h (2 Bft) SW 225 0 min 0,0 UV-I 3,0 C 5,2 C 20,8 km/h (4 Bft)
16.02.2014 10:40 8,0 C 13,8 C 8,1 C 7,9 C 6,9 C 0,0 C 70 % 74 % 0 % 1010,9 hPa 0,0 l/m 13,2 km/h (3 Bft) SW 225 0 min 0,0 UV-I 2,9 C 4,4 C 20,3 km/h (4 Bft)
16.02.2014 10:45 8,0 C 13,8 C 8,0 C 7,8 C 6,8 C 0,0 C 70 % 73 % 0 % 1010,9 hPa 0,0 l/m 13,2 km/h (3 Bft) S 180 0 min 0,0 UV-I 2,9 C 4,2 C 16,6 km/h (3 Bft)
16.02.2014 10:50 8,1 C 13,8 C 8,1 C 7,9 C 6,6 C 0,0 C 69 % 73 % 0 % 1011,4 hPa 0,0 l/m 16,1 km/h (3 Bft) SW 225 0 min 0,0 UV-I 2,8 C 3,6 C 20,6 km/h (4 Bft)
16.02.2014 10:55 8,1 C 13,9 C 8,2 C 7,9 C 6,7 C 0,0 C 70 % 73 % 0 % 1011,4 hPa 0,0 l/m 15,6 km/h (3 Bft) S-SW 202 0 min 0,0 UV-I 3,0 C 3,8 C 23,2 km/h (4 Bft)
16.02.2014 11:00 8,3 C 13,9 C 8,3 C 8,1 C 7,0 C 0,0 C 69 % 72 % 0 % 1011,4 hPa 0,0 l/m 14,3 km/h (3 Bft) SW 225 0 min 0,0 UV-I 3,0 C 4,3 C 15,9 km/h (3 Bft)
16.02.2014 11:02 8,2 C 13,9 C 8,5 C 8,1 C 7,5 C 0,0 C 70 % 73 % 0 % 1011,4 hPa 0,0 l/m 13,2 km/h (3 Bft) S 180 0 min 0,0 UV-I 3,1 C 5,1 C 15,3 km/h (3 Bft)
16.02.2014 11:07 8,3 C 13,9 C 8,4 C 8,2 C 7,3 C 0,0 C 69 % 72 % 0 % 1011,6 hPa 0,0 l/m 14,3 km/h (3 Bft) SW 225 0 min 0,0 UV-I 3,0 C 4,7 C 20,3 km/h (4 Bft)
16.02.2014 11:12 8,3 C 13,9 C 8,4 C 8,2 C 7,1 C 0,0 C 70 % 72 % 0 % 1011,6 hPa 0,0 l/m 15,3 km/h (3 Bft) S 180 0 min 0,0 UV-I 3,2 C 4,3 C 19,2 km/h (3 Bft)
16.02.2014 11:17 8,3 C 13,9 C 8,4 C 7,9 C 7,1 C 0,0 C 70 % 72 % 0 % 1011,6 hPa 0,0 l/m 14,0 km/h (3 Bft) SW 225 0 min 0,0 UV-I 3,2 C 4,5 C 16,6 km/h (3 Bft)
16.02.2014 11:19 8,3 C 13,9 C 8,4 C 7,9 C 7,1 C 0,0 C 70 % 72 % 0 % 1011,6 hPa 0,0 l/m 14,0 km/h (3 Bft) SW 225 0 min 0,0 UV-I 3,2 C 4,5 C 16,6 km/h (3 Bft)
16.02.2014 11:25 8,3 C 13,9 C 8,5 C 8,2 C 7,4 C 0,0 C 70 % 72 % 0 % 1011,6 hPa 0,0 l/m 12,4 km/h (3 Bft) SW 225 0 min 0,0 UV-I 3,2 C 5,1 C 11,4 km/h (2 Bft)
16.02.2014 11:30 8,3 C 13,9 C 8,5 C 8,2 C 7,5 C 0,0 C 69 % 72 % 0 % 1011,9 hPa 0,0 l/m 11,4 km/h (2 Bft) W 270 0 min 0,0 UV-I 3,0 C 5,4 C 17,1 km/h (3 Bft)
16.02.2014 11:35 8,4 C 13,9 C 8,5 C 8,1 C 7,5 C 0,0 C 70 % 72 % 0 % 1011,9 hPa 0,0 l/m 10,9 km/h (2 Bft) SW 225 0 min 0,0 UV-I 3,3 C 5,5 C 14,6 km/h (3 Bft)
16.02.2014 11:40 8,4 C 13,9 C 8,5 C 8,3 C 7,4 C 0,0 C 69 % 72 % 0 % 1011,9 hPa 0,0 l/m 11,7 km/h (2 Bft) SW 225 0 min 0,0 UV-I 3,0 C 5,2 C 13,4 km/h (3 Bft)
16.02.2014 11:45 8,4 C 13,9 C 8,5 C 8,3 C 7,3 C 0,0 C 69 % 72 % 0 % 1011,9 hPa 0,0 l/m 12,2 km/h (2 Bft) SW 225 0 min 0,0 UV-I 3,0 C 5,0 C 28,2 km/h (4 Bft)
16.02.2014 11:50 8,4 C 13,9 C 8,6 C 8,3 C 7,4 C 0,0 C 70 % 72 % 0 % 1012,1 hPa 0,0 l/m 12,4 km/h (3 Bft) SW 225 0 min 0,0 UV-I 3,3 C 5,1 C 7,9 km/h (2 Bft)
16.02.2014 11:55 8,5 C 13,9 C 8,7 C 8,4 C 7,7 C 0,0 C 70 % 73 % 0 % 1012,1 hPa 0,0 l/m 13,0 km/h (3 Bft) S-SO 157 0 min 0,0 UV-I 3,3 C 5,4 C 12,9 km/h (3 Bft)
16.02.2014 12:00 8,5 C 13,9 C 8,8 C 8,7 C 8,6 C 0,2 C 69 % 71 % 5 % 1012,1 hPa 0,0 l/m 9,7 km/h (2 Bft) S-SW 202 0 min 0,0 UV-I 3,1 C 7,0 C 18,5 km/h (3 Bft)
16.02.2014 12:05 8,5 C 13,9 C 8,9 C 9,1 C 8,8 C 0,6 C 69 % 71 % 16 % 1012,1 hPa 0,0 l/m 9,0 km/h (2 Bft) NW 315 0 min 0,0 UV-I 3,1 C 7,4 C 5,1 km/h (1 Bft)
16.02.2014 12:10 8,7 C 13,9 C 8,9 C 9,4 C 9,2 C 0,7 C 69 % 71 % 18 % 1012,4 hPa 0,0 l/m 8,7 km/h (2 Bft) S-SW 202 0 min 0,0 UV-I 3,3 C 7,9 C 25,1 km/h (4 Bft)
16.02.2014 12:15 8,7 C 13,9 C 8,9 C 9,4 C 8,8 C 0,7 C 69 % 71 % 18 % 1012,4 hPa 0,0 l/m 10,0 km/h (2 Bft) S-SW 202 0 min 0,0 UV-I 3,3 C 7,2 C 16,7 km/h (3 Bft)
16.02.2014 12:20 8,6 C 13,9 C 8,9 C 9,0 C 8,2 C 0,4 C 69 % 71 % 11 % 1012,4 hPa 0,0 l/m 12,4 km/h (3 Bft) S-SW 202 0 min 0,0 UV-I 3,2 C 6,1 C 12,7 km/h (3 Bft)
16.02.2014 12:25 8,6 C 13,9 C 8,9 C 8,9 C 8,4 C 0,3 C 69 % 71 % 8 % 1012,4 hPa 0,0 l/m 11,6 km/h (2 Bft) S 180 0 min 0,0 UV-I 3,2 C 6,4 C 13,8 km/h (3 Bft)
16.02.2014 12:30 8,5 C 13,9 C 8,9 C 8,5 C 8,4 C 0,0 C 69 % 71 % 0 % 1012,1 hPa 0,0 l/m 10,5 km/h (2 Bft) SO 135 0 min 0,0 UV-I 3,1 C 6,6 C 8,4 km/h (2 Bft)
16.02.2014 12:35 8,6 C 13,9 C 8,9 C 8,5 C 8,4 C 0,0 C 69 % 71 % 0 % 1012,1 hPa 0,0 l/m 10,1 km/h (2 Bft) S 180 0 min 0,0 UV-I 3,2 C 6,7 C 14,3 km/h (3 Bft)
16.02.2014 12:41 8,7 C 13,9 C 9,1 C 9,1 C 8,9 C 0,4 C 69 % 71 % 11 % 1012,1 hPa 0,0 l/m 8,2 km/h (2 Bft) N 0 0 min 0,0 UV-I 3,3 C 7,7 C 15,0 km/h (3 Bft)
16.02.2014 13:02 8,7 C 14,0 C 9,1 C 8,9 C 8,9 C 0,2 C 69 % 71 % 5 % 1012,2 hPa 0,0 l/m 10,0 km/h (2 Bft) SW 225 0 min 0,0 UV-I 3,3 C 7,3 C 16,9 km/h (3 Bft)
16.02.2014 13:05 8,7 C 14,0 C 9,2 C 9,3 C 8,8 C 0,6 C 69 % 71 % 16 % 1012,2 hPa 0,0 l/m 10,3 km/h (2 Bft) W-SW 247 0 min 0,0 UV-I 3,3 C 7,1 C 7,9 km/h (2 Bft)
16.02.2014 13:10 8,8 C 14,0 C 9,2 C 9,2 C 8,6 C 0,4 C 69 % 71 % 11 % 1011,9 hPa 0,0 l/m 11,7 km/h (2 Bft) S-SW 202 0 min 0,0 UV-I 3,4 C 6,7 C 14,6 km/h (3 Bft)
16.02.2014 13:15 8,7 C 14,0 C 9,1 C 9,2 C 8,7 C 0,5 C 68 % 70 % 13 % 1011,9 hPa 0,0 l/m 11,3 km/h (2 Bft) S 180 0 min 0,0 UV-I 3,1 C 6,9 C 14,3 km/h (3 Bft)
16.02.2014 13:20 8,8 C 14,0 C 9,1 C 8,8 C 8,7 C 0,0 C 69 % 71 % 0 % 1011,9 hPa 0,0 l/m 11,1 km/h (2 Bft) SW 225 0 min 0,0 UV-I 3,4 C 6,9 C 13,8 km/h (3 Bft)
16.02.2014 13:25 8,9 C 14,0 C 9,1 C 9,2 C 8,8 C 0,3 C 68 % 70 % 8 % 1011,9 hPa 0,0 l/m 10,6 km/h (2 Bft) O 90 0 min 0,0 UV-I 3,3 C 7,1 C 14,0 km/h (3 Bft)
16.02.2014 13:30 8,9 C 14,0 C 9,2 C 9,5 C 9,2 C 0,6 C 69 % 71 % 16 % 1011,9 hPa 0,0 l/m 10,1 km/h (2 Bft) S 180 0 min 0,0 UV-I 3,5 C 7,7 C 7,7 km/h (2 Bft)
16.02.2014 13:35 9,0 C 14,0 C 9,3 C 9,7 C 9,4 C 0,7 C 68 % 71 % 18 % 1011,9 hPa 0,0 l/m 10,0 km/h (2 Bft) S 180 0 min 0,0 UV-I 3,4 C 7,9 C 19,6 km/h (3 Bft)
16.02.2014 13:40 8,9 C 14,0 C 9,2 C 9,6 C 9,1 C 0,7 C 67 % 70 % 18 % 1011,9 hPa 0,0 l/m 10,3 km/h (2 Bft) S 180 0 min 0,0 UV-I 3,1 C 7,5 C 26,2 km/h (4 Bft)
16.02.2014 13:45 8,9 C 14,0 C 9,2 C 9,5 C 9,0 C 0,6 C 67 % 69 % 16 % 1011,9 hPa 0,0 l/m 10,6 km/h (2 Bft) S-SW 202 0 min 0,0 UV-I 3,1 C 7,3 C 18,0 km/h (3 Bft)
16.02.2014 13:50 8,9 C 14,0 C 9,1 C 9,1 C 8,3 C 0,2 C 65 % 68 % 5 % 1012,4 hPa 0,0 l/m 13,0 km/h (3 Bft) W-NW 292 0 min 0,0 UV-I 2,7 C 6,1 C 16,3 km/h (3 Bft)
16.02.2014 13:55 8,9 C 14,0 C 9,1 C 8,9 C 8,0 C 0,0 C 67 % 69 % 0 % 1012,4 hPa 0,0 l/m 14,0 km/h (3 Bft) S-SW 202 0 min 0,0 UV-I 3,1 C 5,6 C 16,9 km/h (3 Bft)
16.02.2014 14:00 8,8 C 14,0 C 9,1 C 8,5 C 8,0 C 0,0 C 67 % 69 % 0 % 1012,4 hPa 0,0 l/m 13,2 km/h (3 Bft) S-SO 157 0 min 0,0 UV-I 3,0 C 5,7 C 18,3 km/h (3 Bft)
16.02.2014 14:05 8,8 C 14,0 C 9,1 C 8,7 C 7,8 C 0,0 C 66 % 69 % 0 % 1012,4 hPa 0,0 l/m 13,7 km/h (3 Bft) S 180 0 min 0,0 UV-I 2,8 C 5,4 C 16,6 km/h (3 Bft)
16.02.2014 14:10 8,8 C 14,0 C 9,0 C 8,6 C 7,6 C 0,0 C 66 % 69 % 0 % 1012,3 hPa 0,0 l/m 13,4 km/h (3 Bft) S 180 0 min 0,0 UV-I 2,8 C 5,2 C 12,1 km/h (2 Bft)
16.02.2014 14:15 8,8 C 14,1 C 8,8 C 8,4 C 7,6 C 0,0 C 65 % 69 % 0 % 1012,3 hPa 0,0 l/m 13,8 km/h (3 Bft) S-SW 202 0 min 0,0 UV-I 2,6 C 5,1 C 19,0 km/h (3 Bft)
16.02.2014 14:20 8,8 C 14,1 C 9,1 C 8,4 C 7,6 C 0,0 C 66 % 69 % 0 % 1012,3 hPa 0,0 l/m 14,6 km/h (3 Bft) S 180 0 min 0,0 UV-I 2,8 C 5,0 C 15,6 km/h (3 Bft)
16.02.2014 14:25 8,9 C 14,1 C 9,1 C 8,8 C 7,9 C 0,0 C 67 % 70 % 0 % 1012,3 hPa 0,0 l/m 13,7 km/h (3 Bft) S-SW 202 0 min 0,0 UV-I 3,1 C 5,5 C 12,1 km/h (2 Bft)
16.02.2014 14:30 8,9 C 14,1 C 9,1 C 8,8 C 8,1 C 0,0 C 65 % 69 % 0 % 1012,1 hPa 0,0 l/m 13,5 km/h (3 Bft) S 180 0 min 0,0 UV-I 2,7 C 5,8 C 15,6 km/h (3 Bft)
16.02.2014 14:35 9,1 C 14,1 C 9,2 C 9,0 C 8,4 C 0,0 C 66 % 70 % 0 % 1012,1 hPa 0,0 l/m 13,2 km/h (3 Bft) SO 135 0 min 0,0 UV-I 3,1 C 6,2 C 9,0 km/h (2 Bft)
16.02.2014 14:40 9,1 C 14,1 C 9,1 C 9,3 C 9,0 C 0,2 C 67 % 70 % 5 % 1012,1 hPa 0,0 l/m 10,6 km/h (2 Bft) SW 225 0 min 0,0 UV-I 3,3 C 7,3 C 13,2 km/h (3 Bft)
16.02.2014 14:45 9,1 C 14,1 C 9,1 C 9,4 C 8,8 C 0,3 C 65 % 69 % 8 % 1012,1 hPa 0,0 l/m 11,1 km/h (2 Bft) S 180 0 min 0,0 UV-I 2,9 C 7,0 C 24,5 km/h (4 Bft)
16.02.2014 14:50 9,0 C 14,1 C 8,8 C 9,0 C 8,2 C 0,0 C 65 % 69 % 0 % 1012,2 hPa 0,0 l/m 13,4 km/h (3 Bft) S-SO 157 0 min 0,0 UV-I 2,8 C 5,9 C 14,2 km/h (3 Bft)
16.02.2014 14:55 8,9 C 14,1 C 8,8 C 8,8 C 7,9 C 0,0 C 65 % 69 % 0 % 1012,2 hPa 0,0 l/m 13,5 km/h (3 Bft) O 90 0 min 0,0 UV-I 2,7 C 5,5 C 15,0 km/h (3 Bft)
16.02.2014 15:00 8,8 C 14,1 C 8,5 C 8,6 C 7,4 C 0,0 C 65 % 69 % 0 % 1012,2 hPa 0,0 l/m 12,4 km/h (3 Bft) S-SW 202 0 min 0,0 UV-I 2,6 C 5,1 C 20,1 km/h (4 Bft)
16.02.2014 15:05 8,7 C 14,1 C 8,4 C 8,4 C 7,2 C 0,0 C 65 % 69 % 0 % 1012,2 hPa 0,0 l/m 12,1 km/h (2 Bft) W-SW 247 0 min 0,0 UV-I 2,5 C 4,9 C 7,4 km/h (2 Bft)
16.02.2014 15:10 8,7 C 14,1 C 8,4 C 8,5 C 7,7 C 0,0 C 65 % 70 % 0 % 1012,1 hPa 0,0 l/m 9,8 km/h (2 Bft) S-SW 202 0 min 0,0 UV-I 2,5 C 5,9 C 10,0 km/h (2 Bft)
16.02.2014 15:15 8,7 C 14,1 C 8,4 C 8,6 C 8,0 C 0,0 C 66 % 70 % 0 % 1012,1 hPa 0,0 l/m 8,7 km/h (2 Bft) SW 225 0 min 0,0 UV-I 2,7 C 6,5 C 12,9 km/h (3 Bft)
16.02.2014 15:20 8,8 C 14,1 C 8,3 C 9,0 C 8,9 C 0,2 C 65 % 70 % 5 % 1012,1 hPa 0,0 l/m 8,7 km/h (2 Bft) S 180 0 min 0,0 UV-I 2,6 C 7,6 C 9,3 km/h (2 Bft)
16.02.2014 15:25 8,7 C 14,1 C 8,3 C 9,0 C 8,4 C 0,3 C 65 % 70 % 8 % 1012,1 hPa 0,0 l/m 9,3 km/h (2 Bft) S-SW 202 0 min 0,0 UV-I 2,5 C 6,9 C 8,7 km/h (2 Bft)
16.02.2014 15:30 8,7 C 14,1 C 8,1 C 8,7 C 8,0 C 0,0 C 66 % 71 % 0 % 1012,3 hPa 0,0 l/m 8,9 km/h (2 Bft) S-SO 157 0 min 0,0 UV-I 2,7 C 6,5 C 5,6 km/h (1 Bft)
16.02.2014 15:35 8,9 C 14,1 C 8,3 C 8,9 C 8,8 C 0,0 C 66 % 71 % 0 % 1012,3 hPa 0,0 l/m 7,7 km/h (2 Bft) S-SW 202 0 min 0,0 UV-I 2,9 C 7,7 C 3,4 km/h (1 Bft)
16.02.2014 15:40 8,7 C 14,1 C 8,1 C 8,6 C 8,4 C 0,0 C 66 % 71 % 0 % 1012,3 hPa 0,0 l/m 6,6 km/h (2 Bft) S-SW 202 0 min 0,0 UV-I 2,7 C 7,5 C 15,9 km/h (3 Bft)
16.02.2014 15:45 8,5 C 14,1 C 7,9 C 8,2 C 7,7 C 0,0 C 66 % 71 % 0 % 1012,3 hPa 0,0 l/m 7,6 km/h (2 Bft) S 180 0 min 0,0 UV-I 2,5 C 6,4 C 12,4 km/h (3 Bft)
16.02.2014 15:50 8,5 C 14,1 C 7,9 C 8,3 C 7,4 C 0,0 C 67 % 72 % 0 % 1012,3 hPa 0,0 l/m 7,9 km/h (2 Bft) O-NO 67 0 min 0,0 UV-I 2,7 C 6,0 C 9,2 km/h (2 Bft)
16.02.2014 15:55 8,5 C 14,2 C 8,1 C 8,4 C 7,9 C 0,0 C 67 % 72 % 0 % 1012,3 hPa 0,0 l/m 8,0 km/h (2 Bft) S-SW 202 0 min 0,0 UV-I 2,7 C 6,5 C 15,0 km/h (3 Bft)
16.02.2014 16:00 8,7 C 14,2 C 8,0 C 8,6 C 7,8 C 0,0 C 66 % 71 % 0 % 1012,3 hPa 0,0 l/m 9,7 km/h (2 Bft) O-SO 112 0 min 0,0 UV-I 2,7 C 6,1 C 11,9 km/h (2 Bft)
16.02.2014 16:05 8,5 C 14,2 C 8,0 C 8,4 C 7,7 C 0,0 C 67 % 71 % 0 % 1012,3 hPa 0,0 l/m 9,3 km/h (2 Bft) S 180 0 min 0,0 UV-I 2,7 C 6,0 C 8,7 km/h (2 Bft)
16.02.2014 16:10 8,5 C 14,2 C 8,0 C 8,3 C 7,6 C 0,0 C 67 % 71 % 0 % 1012,4 hPa 0,0 l/m 8,0 km/h (2 Bft) W-SW 247 0 min 0,0 UV-I 2,7 C 6,2 C 18,0 km/h (3 Bft)
16.02.2014 16:15 8,4 C 14,2 C 7,9 C 8,1 C 7,5 C 0,0 C 67 % 72 % 0 % 1012,4 hPa 0,0 l/m 7,4 km/h (2 Bft) S 180 0 min 0,0 UV-I 2,6 C 6,2 C 18,7 km/h (3 Bft)
16.02.2014 16:20 8,3 C 14,2 C 7,7 C 8,1 C 6,9 C 0,0 C 67 % 72 % 0 % 1012,4 hPa 0,0 l/m 8,4 km/h (2 Bft) S 180 0 min 0,0 UV-I 2,5 C 5,3 C 17,1 km/h (3 Bft)
16.02.2014 16:25 8,3 C 14,2 C 7,6 C 7,9 C 6,7 C 0,0 C 67 % 72 % 0 % 1012,4 hPa 0,0 l/m 8,5 km/h (2 Bft) NW 315 0 min 0,0 UV-I 2,5 C 5,0 C 4,5 km/h (1 Bft)
16.02.2014 16:30 8,1 C 14,2 C 7,7 C 7,8 C 6,5 C 0,0 C 67 % 72 % 0 % 1012,5 hPa 0,0 l/m 8,9 km/h (2 Bft) SW 225 0 min 0,0 UV-I 2,3 C 4,7 C 13,4 km/h (3 Bft)
16.02.2014 16:35 8,1 C 14,2 C 7,6 C 7,6 C 6,5 C 0,0 C 68 % 72 % 0 % 1012,5 hPa 0,0 l/m 9,3 km/h (2 Bft) SO 135 0 min 0,0 UV-I 2,6 C 4,6 C 11,6 km/h (2 Bft)
16.02.2014 16:40 8,0 C 14,2 C 7,6 C 7,7 C 6,6 C 0,0 C 68 % 73 % 0 % 1012,5 hPa 0,0 l/m 9,0 km/h (2 Bft) O-SO 112 0 min 0,0 UV-I 2,5 C 4,8 C 20,4 km/h (4 Bft)
16.02.2014 16:45 8,1 C 14,2 C 7,7 C 7,8 C 6,8 C 0,0 C 68 % 72 % 0 % 1012,5 hPa 0,0 l/m 8,4 km/h (2 Bft) S 180 0 min 0,0 UV-I 2,6 C 5,2 C 12,6 km/h (3 Bft)
16.02.2014 16:50 8,1 C 14,2 C 7,7 C 7,8 C 6,7 C 0,0 C 68 % 72 % 0 % 1012,6 hPa 0,0 l/m 9,2 km/h (2 Bft) S 180 0 min 0,0 UV-I 2,6 C 4,9 C 14,2 km/h (3 Bft)
16.02.2014 16:55 8,1 C 14,2 C 7,7 C 7,6 C 6,7 C 0,0 C 68 % 73 % 0 % 1012,6 hPa 0,0 l/m 9,3 km/h (2 Bft) S 180 0 min 0,0 UV-I 2,6 C 4,8 C 10,3 km/h (2 Bft)
16.02.2014 17:00 7,5 C 14,3 C 7,2 C 7,3 C 6,0 C 0,0 C 71 % 75 % 0 % 1012,6 hPa 0,0 l/m 8,9 km/h (2 Bft) W 270 0 min 0,0 UV-I 2,6 C 4,1 C 9,7 km/h (2 Bft)
16.02.2014 17:05 7,0 C 14,3 C 6,8 C 6,7 C 5,5 C 0,0 C 74 % 76 % 0 % 1012,6 hPa 0,0 l/m 8,4 km/h (2 Bft) SW 225 0 min 0,0 UV-I 2,7 C 3,6 C 10,8 km/h (2 Bft)
16.02.2014 17:10 6,8 C 14,3 C 6,7 C 6,4 C 4,9 C 0,0 C 75 % 77 % 0 % 1013,2 hPa 0,0 l/m 8,4 km/h (2 Bft) S 180 0 min 0,0 UV-I 2,7 C 2,9 C 11,9 km/h (2 Bft)
16.02.2014 17:15 6,7 C 14,4 C 6,7 C 6,2 C 4,6 C 0,0 C 77 % 79 % 0 % 1013,2 hPa 0,0 l/m 9,0 km/h (2 Bft) S 180 0 min 0,0 UV-I 3,0 C 2,4 C 11,9 km/h (2 Bft)
16.02.2014 17:20 6,5 C 14,4 C 6,4 C 5,9 C 3,5 C 0,0 C 79 % 80 % 0 % 1013,2 hPa 0,0 l/m 10,3 km/h (2 Bft) S 180 0 min 0,0 UV-I 3,1 C 0,8 C 12,7 km/h (3 Bft)
16.02.2014 17:25 6,3 C 14,5 C 6,3 C 5,6 C 3,2 C 0,0 C 80 % 80 % 0 % 1013,2 hPa 0,0 l/m 10,9 km/h (2 Bft) SW 225 0 min 0,0 UV-I 3,1 C 0,3 C 12,6 km/h (3 Bft)
16.02.2014 17:30 6,1 C 14,7 C 6,0 C 5,3 C 2,8 C 0,0 C 82 % 82 % 0 % 1013,4 hPa 0,0 l/m 10,6 km/h (2 Bft) W-SW 247 0 min 0,0 UV-I 3,3 C -0,1 C 12,7 km/h (3 Bft)
16.02.2014 17:35 5,8 C 14,7 C 5,7 C 4,8 C 2,8 C 0,0 C 82 % 83 % 0 % 1013,4 hPa 0,0 l/m 10,5 km/h (2 Bft) S-SW 202 0 min 0,0 UV-I 3,0 C -0,1 C 10,0 km/h (2 Bft)
16.02.2014 17:40 5,6 C 14,8 C 5,3 C 4,9 C 2,4 C 0,0 C 83 % 84 % 0 % 1013,4 hPa 0,0 l/m 11,1 km/h (2 Bft) S 180 0 min 0,0 UV-I 2,9 C -0,7 C 14,2 km/h (3 Bft)
16.02.2014 17:45 5,6 C 14,8 C 5,3 C 4,5 C 2,4 C 0,0 C 84 % 85 % 0 % 1013,4 hPa 0,0 l/m 10,3 km/h (2 Bft) S 180 0 min 0,0 UV-I 3,1 C -0,5 C 9,7 km/h (2 Bft)
16.02.2014 17:50 5,5 C 14,8 C 5,1 C 4,8 C 2,7 C 0,0 C 84 % 86 % 0 % 1013,5 hPa 0,0 l/m 8,9 km/h (2 Bft) SW 225 0 min 0,0 UV-I 3,0 C 0,2 C 11,7 km/h (2 Bft)
16.02.2014 17:55 5,5 C 14,8 C 5,1 C 4,6 C 2,7 C 0,0 C 84 % 86 % 0 % 1013,5 hPa 0,0 l/m 8,7 km/h (2 Bft) S-SO 157 0 min 0,0 UV-I 3,0 C 0,2 C 11,1 km/h (2 Bft)
16.02.2014 18:00 5,5 C 14,7 C 4,8 C 4,8 C 2,6 C 0,0 C 84 % 86 % 0 % 1013,5 hPa 0,0 l/m 8,5 km/h (2 Bft) S-SO 157 0 min 0,0 UV-I 3,0 C 0,2 C 10,5 km/h (2 Bft)
16.02.2014 18:05 5,5 C 14,7 C 4,8 C 4,5 C 2,5 C 0,0 C 83 % 87 % 0 % 1013,5 hPa 0,0 l/m 7,6 km/h (2 Bft) S 180 0 min 0,0 UV-I 2,8 C 0,3 C 7,7 km/h (2 Bft)
16.02.2014 18:10 5,3 C 14,7 C 4,7 C 4,4 C 2,7 C 0,0 C 83 % 87 % 0 % 1013,4 hPa 0,0 l/m 6,4 km/h (2 Bft) S 180 0 min 0,0 UV-I 2,7 C 0,9 C 7,9 km/h (2 Bft)
16.02.2014 18:15 5,3 C 14,7 C 4,4 C 4,4 C 2,7 C 0,0 C 83 % 87 % 0 % 1013,4 hPa 0,0 l/m 6,1 km/h (2 Bft) W-SW 247 0 min 0,0 UV-I 2,7 C 1,0 C 10,3 km/h (2 Bft)
16.02.2014 18:20 5,2 C 14,7 C 4,4 C 4,3 C 2,6 C 0,0 C 83 % 87 % 0 % 1013,4 hPa 0,0 l/m 6,3 km/h (2 Bft) S 180 0 min 0,0 UV-I 2,6 C 0,9 C 6,0 km/h (2 Bft)
16.02.2014 18:25 5,2 C 14,7 C 4,4 C 4,4 C 2,7 C 0,0 C 83 % 88 % 0 % 1013,4 hPa 0,0 l/m 6,4 km/h (2 Bft) S 180 0 min 0,0 UV-I 2,6 C 0,9 C 6,9 km/h (2 Bft)
16.02.2014 18:30 5,3 C 14,7 C 4,4 C 4,5 C 2,8 C 0,0 C 83 % 88 % 0 % 1013,8 hPa 0,0 l/m 6,1 km/h (2 Bft) SW 225 0 min 0,0 UV-I 2,7 C 1,2 C 4,5 km/h (1 Bft)
16.02.2014 18:35 5,2 C 14,7 C 4,5 C 4,5 C 3,1 C 0,0 C 83 % 88 % 0 % 1013,8 hPa 0,0 l/m 5,6 km/h (1 Bft) S 180 0 min 0,0 UV-I 2,6 C 1,7 C 7,1 km/h (2 Bft)
16.02.2014 18:41 5,2 C 14,7 C 4,6 C 4,8 C 4,1 C 0,0 C 84 % 88 % 0 % 1013,8 hPa 0,0 l/m 3,5 km/h (1 Bft) N 0 0 min 0,0 UV-I 2,7 C 4,1 C 4,2 km/h (1 Bft)
16.02.2014 19:01 5,0 C 14,7 C 4,5 C 4,8 C 4,3 C 0,0 C 84 % 88 % 0 % 1014,1 hPa 0,0 l/m 1,6 km/h (1 Bft) S 180 0 min 0,0 UV-I 2,5 C 4,3 C 3,5 km/h (1 Bft)
16.02.2014 19:05 5,0 C 14,7 C 4,7 C 4,8 C 4,3 C 0,0 C 84 % 88 % 0 % 1014,1 hPa 0,0 l/m 1,9 km/h (1 Bft) SO 135 0 min 0,0 UV-I 2,5 C 4,3 C 2,6 km/h (1 Bft)
16.02.2014 19:10 4,9 C 14,8 C 4,6 C 4,5 C 3,6 C 0,0 C 85 % 88 % 0 % 1014,2 hPa 0,0 l/m 4,5 km/h (1 Bft) S-SW 202 0 min 0,0 UV-I 2,6 C 3,6 C 6,6 km/h (2 Bft)
16.02.2014 19:15 4,9 C 14,8 C 4,7 C 4,4 C 3,3 C 0,0 C 85 % 88 % 0 % 1014,2 hPa 0,0 l/m 5,6 km/h (1 Bft) SW 225 0 min 0,0 UV-I 2,6 C 1,9 C 8,5 km/h (2 Bft)
16.02.2014 19:20 4,8 C 14,8 C 4,7 C 4,2 C 2,9 C 0,0 C 86 % 89 % 0 % 1014,2 hPa 0,7 l/m 7,1 km/h (2 Bft) W-NW 292 0 min 0,0 UV-I 2,7 C 0,9 C 8,5 km/h (2 Bft)
16.02.2014 19:25 4,9 C 14,8 C 4,8 C 4,4 C 2,8 C 0,0 C 86 % 89 % 0 % 1014,2 hPa 0,0 l/m 8,0 km/h (2 Bft) SO 135 0 min 0,0 UV-I 2,8 C 0,6 C 9,8 km/h (2 Bft)
16.02.2014 19:30 4,8 C 14,8 C 4,7 C 4,1 C 2,8 C 0,0 C 86 % 89 % 0 % 1014,6 hPa 0,0 l/m 7,4 km/h (2 Bft) W 270 0 min 0,0 UV-I 2,7 C 0,7 C 6,4 km/h (2 Bft)
16.02.2014 19:35 4,8 C 14,8 C 4,7 C 4,1 C 2,8 C 0,0 C 85 % 89 % 0 % 1014,6 hPa 0,0 l/m 6,9 km/h (2 Bft) S 180 0 min 0,0 UV-I 2,5 C 0,9 C 11,6 km/h (2 Bft)
16.02.2014 19:40 4,7 C 14,8 C 4,4 C 3,9 C 2,4 C 0,0 C 85 % 89 % 0 % 1014,6 hPa 0,0 l/m 7,6 km/h (2 Bft) S 180 0 min 0,0 UV-I 2,4 C 0,2 C 10,5 km/h (2 Bft)
16.02.2014 19:45 4,6 C 14,8 C 4,4 C 3,8 C 2,1 C 0,0 C 85 % 89 % 0 % 1014,6 hPa 0,0 l/m 7,4 km/h (2 Bft) S 180 0 min 0,0 UV-I 2,3 C -0,1 C 7,9 km/h (2 Bft)
16.02.2014 19:50 4,5 C 14,8 C 4,3 C 3,9 C 2,6 C 0,0 C 85 % 89 % 0 % 1014,5 hPa 0,0 l/m 5,6 km/h (1 Bft) NW 315 0 min 0,0 UV-I 2,2 C 1,1 C 5,5 km/h (1 Bft)
16.02.2014 19:55 4,5 C 14,8 C 4,3 C 4,0 C 2,9 C 0,0 C 85 % 89 % 0 % 1014,5 hPa 0,0 l/m 4,7 km/h (1 Bft) S 180 0 min 0,0 UV-I 2,2 C 1,8 C 1,9 km/h (1 Bft)
16.02.2014 20:00 4,4 C 14,8 C 4,2 C 4,1 C 3,4 C 0,0 C 86 % 89 % 0 % 1014,5 hPa 0,0 l/m 3,7 km/h (1 Bft) SO 135 0 min 0,0 UV-I 2,3 C 3,4 C 5,0 km/h (1 Bft)
16.02.2014 20:05 4,5 C 14,8 C 4,3 C 4,2 C 3,6 C 0,0 C 86 % 89 % 0 % 1014,5 hPa 0,0 l/m 3,1 km/h (1 Bft) S 180 0 min 0,0 UV-I 2,4 C 3,6 C 2,4 km/h (1 Bft)
16.02.2014 20:10 4,4 C 14,7 C 4,1 C 4,1 C 3,5 C 0,0 C 85 % 89 % 0 % 1014,3 hPa 0,0 l/m 1,8 km/h (1 Bft) SW 225 0 min 0,0 UV-I 2,1 C 3,5 C 0,0 km/h (0 Bft)
16.02.2014 20:15 4,3 C 14,7 C 4,0 C 4,0 C 3,3 C 0,0 C 86 % 89 % 0 % 1014,3 hPa 0,0 l/m 0,6 km/h (0 Bft) NW 315 0 min 0,0 UV-I 2,2 C 3,3 C 0,0 km/h (0 Bft)
16.02.2014 20:20 4,1 C 14,7 C 4,0 C 3,8 C 3,2 C 0,0 C 85 % 89 % 0 % 1014,3 hPa 0,0 l/m 0,6 km/h (0 Bft) S 180 0 min 0,0 UV-I 1,8 C 3,2 C 3,4 km/h (1 Bft)
16.02.2014 20:25 4,0 C 14,7 C 3,8 C 3,7 C 3,2 C 0,0 C 85 % 89 % 0 % 1014,3 hPa 0,0 l/m 0,6 km/h (0 Bft) O-SO 112 0 min 0,0 UV-I 1,7 C 3,2 C 0,0 km/h (0 Bft)
16.02.2014 20:30 4,0 C 14,7 C 3,9 C 3,7 C 3,1 C 0,0 C 85 % 90 % 0 % 1014,6 hPa 0,0 l/m 1,6 km/h (1 Bft) S-SO 157 0 min 0,0 UV-I 1,7 C 3,1 C 5,0 km/h (1 Bft)
16.02.2014 20:35 3,9 C 14,7 C 4,0 C 3,7 C 3,2 C 0,0 C 86 % 90 % 0 % 1014,6 hPa 0,0 l/m 2,9 km/h (1 Bft) SO 135 0 min 0,0 UV-I 1,8 C 3,2 C 4,0 km/h (1 Bft)
16.02.2014 20:40 3,9 C 14,7 C 3,9 C 3,5 C 2,6 C 0,0 C 86 % 90 % 0 % 1014,6 hPa 0,0 l/m 4,0 km/h (1 Bft) S 180 0 min 0,0 UV-I 1,8 C 2,6 C 4,8 km/h (1 Bft)
16.02.2014 20:45 3,9 C 14,7 C 3,9 C 3,5 C 2,6 C 0,0 C 86 % 90 % 0 % 1014,6 hPa 0,0 l/m 3,9 km/h (1 Bft) O-SO 112 0 min 0,0 UV-I 1,8 C 2,6 C 5,1 km/h (1 Bft)
16.02.2014 20:50 3,7 C 14,7 C 3,9 C 3,5 C 3,0 C 0,0 C 86 % 90 % 0 % 1014,9 hPa 0,0 l/m 3,2 km/h (1 Bft) SO 135 0 min 0,0 UV-I 1,6 C 3,0 C 4,7 km/h (1 Bft)
16.02.2014 20:55 3,7 C 14,7 C 3,9 C 3,6 C 3,3 C 0,0 C 86 % 90 % 0 % 1014,9 hPa 0,0 l/m 2,4 km/h (1 Bft) SW 225 0 min 0,0 UV-I 1,6 C 3,3 C 2,9 km/h (1 Bft)
16.02.2014 21:00 3,6 C 14,7 C 4,0 C 3,6 C 3,5 C 0,0 C 87 % 90 % 0 % 1014,9 hPa 0,0 l/m 1,8 km/h (1 Bft) SW 225 0 min 0,0 UV-I 1,6 C 3,5 C 1,6 km/h (1 Bft)
16.02.2014 21:05 3,6 C 14,7 C 4,0 C 3,6 C 3,6 C 0,0 C 87 % 90 % 0 % 1014,9 hPa 0,0 l/m 1,9 km/h (1 Bft) O-NO 67 0 min 0,0 UV-I 1,6 C 3,6 C 6,3 km/h (2 Bft)
16.02.2014 21:10 3,6 C 14,7 C 4,1 C 3,6 C 3,5 C 0,0 C 87 % 90 % 0 % 1015,1 hPa 0,0 l/m 3,2 km/h (1 Bft) S-SO 157 0 min 0,0 UV-I 1,6 C 3,5 C 5,8 km/h (2 Bft)
16.02.2014 21:15 3,7 C 14,7 C 4,0 C 3,4 C 2,8 C 0,0 C 87 % 90 % 0 % 1015,1 hPa 0,0 l/m 4,2 km/h (1 Bft) SO 135 0 min 0,0 UV-I 1,7 C 2,8 C 7,6 km/h (2 Bft)
16.02.2014 21:20 3,6 C 14,7 C 3,9 C 3,3 C 2,7 C 0,0 C 87 % 90 % 0 % 1015,1 hPa 0,0 l/m 4,3 km/h (1 Bft) S-SO 157 0 min 0,0 UV-I 1,6 C 2,7 C 2,7 km/h (1 Bft)
16.02.2014 21:25 3,6 C 14,7 C 3,9 C 3,4 C 2,9 C 0,0 C 86 % 90 % 0 % 1015,1 hPa 0,0 l/m 3,4 km/h (1 Bft) SO 135 0 min 0,0 UV-I 1,5 C 2,9 C 2,9 km/h (1 Bft)
16.02.2014 21:30 3,6 C 14,7 C 3,9 C 3,5 C 3,3 C 0,0 C 86 % 90 % 0 % 1014,8 hPa 0,0 l/m 1,6 km/h (1 Bft) SO 135 0 min 0,0 UV-I 1,5 C 3,3 C 2,7 km/h (1 Bft)
16.02.2014 21:35 3,6 C 14,6 C 3,9 C 3,5 C 3,3 C 0,0 C 87 % 90 % 0 % 1014,8 hPa 0,0 l/m 2,3 km/h (1 Bft) S-SW 202 0 min 0,0 UV-I 1,6 C 3,3 C 5,1 km/h (1 Bft)
16.02.2014 21:40 3,5 C 14,6 C 3,6 C 3,3 C 2,9 C 0,0 C 86 % 90 % 0 % 1014,8 hPa 0,0 l/m 3,1 km/h (1 Bft) SW 225 0 min 0,0 UV-I 1,4 C 2,9 C 3,9 km/h (1 Bft)
16.02.2014 21:45 3,5 C 14,6 C 3,5 C 3,2 C 2,6 C 0,0 C 86 % 90 % 0 % 1014,8 hPa 0,0 l/m 3,2 km/h (1 Bft) S 180 0 min 0,0 UV-I 1,4 C 2,6 C 5,1 km/h (1 Bft)
16.02.2014 21:50 3,4 C 14,6 C 3,3 C 3,2 C 2,7 C 0,0 C 86 % 90 % 0 % 1015,4 hPa 0,0 l/m 2,7 km/h (1 Bft) S 180 0 min 0,0 UV-I 1,3 C 2,7 C 3,1 km/h (1 Bft)
16.02.2014 21:55 3,3 C 14,6 C 3,2 C 3,1 C 2,6 C 0,0 C 86 % 90 % 0 % 1015,4 hPa 0,0 l/m 1,8 km/h (1 Bft) SW 225 0 min 0,0 UV-I 1,2 C 2,6 C 0,0 km/h (0 Bft)
16.02.2014 22:00 3,2 C 14,6 C 3,2 C 2,9 C 2,4 C 0,0 C 86 % 90 % 0 % 1015,4 hPa 0,0 l/m 0,8 km/h (0 Bft) SW 225 0 min 0,0 UV-I 1,1 C 2,4 C 5,3 km/h (1 Bft)
16.02.2014 22:05 3,2 C 14,6 C 3,2 C 2,9 C 2,4 C 0,0 C 86 % 90 % 0 % 1015,4 hPa 0,0 l/m 1,3 km/h (1 Bft) SW 225 0 min 0,0 UV-I 1,1 C 2,4 C 2,6 km/h (1 Bft)
16.02.2014 22:10 3,0 C 14,6 C 3,1 C 2,8 C 2,4 C 0,0 C 87 % 90 % 0 % 1015,2 hPa 0,0 l/m 2,3 km/h (1 Bft) S-SW 202 0 min 0,0 UV-I 1,1 C 2,4 C 3,5 km/h (1 Bft)
16.02.2014 22:15 3,0 C 14,6 C 3,1 C 2,8 C 2,4 C 0,0 C 87 % 90 % 0 % 1015,2 hPa 0,0 l/m 2,1 km/h (1 Bft) S-SO 157 0 min 0,0 UV-I 1,1 C 2,4 C 1,6 km/h (1 Bft)
16.02.2014 22:20 3,0 C 14,6 C 3,1 C 2,7 C 2,1 C 0,0 C 87 % 90 % 0 % 1015,2 hPa 0,0 l/m 3,1 km/h (1 Bft) S 180 0 min 0,0 UV-I 1,1 C 2,1 C 5,3 km/h (1 Bft)
16.02.2014 22:25 3,1 C 14,6 C 3,1 C 2,8 C 2,1 C 0,0 C 87 % 90 % 0 % 1015,2 hPa 0,0 l/m 3,4 km/h (1 Bft) S 180 0 min 0,0 UV-I 1,2 C 2,1 C 2,9 km/h (1 Bft)
16.02.2014 22:30 3,1 C 14,5 C 3,0 C 2,6 C 1,6 C 0,0 C 87 % 90 % 0 % 1015,2 hPa 0,0 l/m 4,5 km/h (1 Bft) SO 135 0 min 0,0 UV-I 1,2 C 1,6 C 6,8 km/h (2 Bft)
16.02.2014 22:35 3,1 C 14,5 C 3,1 C 2,6 C 1,6 C 0,0 C 87 % 90 % 0 % 1015,2 hPa 0,0 l/m 4,5 km/h (1 Bft) S-SO 157 0 min 0,0 UV-I 1,2 C 1,6 C 6,1 km/h (2 Bft)
16.02.2014 22:40 3,1 C 14,5 C 3,1 C 2,7 C 1,9 C 0,0 C 87 % 90 % 0 % 1015,2 hPa 0,0 l/m 4,2 km/h (1 Bft) SO 135 0 min 0,0 UV-I 1,2 C 1,9 C 7,6 km/h (2 Bft)
16.02.2014 22:45 3,1 C 14,5 C 3,2 C 2,8 C 2,1 C 0,0 C 87 % 90 % 0 % 1015,2 hPa 0,0 l/m 3,9 km/h (1 Bft) S 180 0 min 0,0 UV-I 1,2 C 2,1 C 6,1 km/h (2 Bft)
16.02.2014 22:50 3,2 C 14,5 C 3,3 C 2,9 C 2,2 C 0,0 C 87 % 90 % 0 % 1015,1 hPa 0,0 l/m 4,3 km/h (1 Bft) S 180 0 min 0,0 UV-I 1,2 C 2,2 C 8,7 km/h (2 Bft)
16.02.2014 22:55 3,2 C 14,4 C 3,5 C 2,9 C 2,3 C 0,0 C 87 % 91 % 0 % 1015,1 hPa 0,0 l/m 4,7 km/h (1 Bft) S 180 0 min 0,0 UV-I 1,2 C 1,2 C 5,6 km/h (1 Bft)
16.02.2014 23:00 3,5 C 14,4 C 3,7 C 3,1 C 2,3 C 0,0 C 87 % 91 % 0 % 1015,1 hPa 0,0 l/m 5,5 km/h (1 Bft) SO 135 0 min 0,0 UV-I 1,5 C 0,8 C 5,5 km/h (1 Bft)
16.02.2014 23:05 3,6 C 14,4 C 3,7 C 3,2 C 2,4 C 0,0 C 87 % 91 % 0 % 1015,1 hPa 0,0 l/m 5,6 km/h (1 Bft) S 180 0 min 0,0 UV-I 1,6 C 0,9 C 9,0 km/h (2 Bft)
16.02.2014 23:10 4,0 C 14,4 C 3,9 C 3,5 C 2,4 C 0,0 C 86 % 91 % 0 % 1015,2 hPa 0,0 l/m 6,4 km/h (2 Bft) SW 225 0 min 0,0 UV-I 1,9 C 0,6 C 6,8 km/h (2 Bft)
16.02.2014 23:15 4,0 C 14,4 C 3,9 C 3,5 C 2,5 C 0,0 C 86 % 90 % 0 % 1015,2 hPa 0,0 l/m 7,1 km/h (2 Bft) SW 225 0 min 0,0 UV-I 1,9 C 0,5 C 9,7 km/h (2 Bft)
16.02.2014 23:20 4,3 C 14,3 C 4,0 C 3,7 C 2,6 C 0,0 C 86 % 90 % 0 % 1015,2 hPa 0,0 l/m 7,2 km/h (2 Bft) SW 225 0 min 0,0 UV-I 2,2 C 0,6 C 7,1 km/h (2 Bft)
16.02.2014 23:25 4,3 C 14,4 C 4,0 C 3,8 C 2,7 C 0,0 C 86 % 90 % 0 % 1015,2 hPa 0,0 l/m 7,1 km/h (2 Bft) S 180 0 min 0,0 UV-I 2,2 C 0,7 C 9,2 km/h (2 Bft)
16.02.2014 23:30 4,4 C 14,3 C 4,0 C 3,9 C 2,8 C 0,0 C 85 % 90 % 0 % 1015,4 hPa 0,0 l/m 6,4 km/h (2 Bft) S-SW 202 0 min 0,0 UV-I 2,1 C 1,1 C 9,7 km/h (2 Bft)
16.02.2014 23:35 4,4 C 14,3 C 3,9 C 3,9 C 3,0 C 0,0 C 85 % 90 % 0 % 1015,4 hPa 0,0 l/m 6,0 km/h (2 Bft) SW 225 0 min 0,0 UV-I 2,1 C 1,4 C 6,6 km/h (2 Bft)
16.02.2014 23:40 4,4 C 14,3 C 3,9 C 4,0 C 3,3 C 0,0 C 85 % 90 % 0 % 1015,4 hPa 0,0 l/m 5,3 km/h (1 Bft) S 180 0 min 0,0 UV-I 2,1 C 2,0 C 6,4 km/h (2 Bft)
16.02.2014 23:45 4,4 C 14,3 C 4,0 C 4,3 C 4,0 C 0,0 C 85 % 90 % 0 % 1015,4 hPa 0,0 l/m 3,4 km/h (1 Bft) N-NO 22 0 min 0,0 UV-I 2,1 C 4,0 C 0,0 km/h (0 Bft)
16.02.2014 23:50 4,4 C 14,3 C 4,0 C 4,3 C 4,2 C 0,0 C 85 % 90 % 0 % 1015,8 hPa 0,0 l/m 1,8 km/h (1 Bft) S 180 0 min 0,0 UV-I 2,1 C 4,2 C 3,4 km/h (1 Bft)
16.02.2014 23:55 4,3 C 14,3 C 4,0 C 4,2 C 4,1 C 0,0 C 85 % 90 % 0 % 1015,8 hPa 0,0 l/m 1,6 km/h (1 Bft) O-SO 112 0 min 0,0 UV-I 2,0 C 4,1 C 3,2 km/h (1 Bft)
_ Min-Zeit 22:10 10:00 22:30 22:30 22:30 00:00 13:50 13:50 00:00 00:00 - 20:15 - - - 00:00 22:10 17:40 20:10
Minimum _ 3,0 C 13,8 C 3,0 C 2,6 C 1,6 C 0,0 C 65 % 68 % 0 % 1008,2 hPa - 0,6 km/h (0 Bft) - - - 0,0 UV-I 1,1 C -0,7 C 0,0 km/h (0 Bft)
_ Max-Zeit 14:35 17:40 13:35 13:35 13:35 13:40 21:00 22:55 13:40 23:50 19:20 10:50 - - 00:00 00:00 00:00 12:10 10:00
Maximum _ 9,1 C 14,8 C 9,3 C 9,7 C 9,4 C 0,7 C 87 % 91 % 18 % 1015,8 hPa 0,7 l/m 16,1 km/h
SW (3 Bft)
- - 0 min 0,0 UV-I 4,2 C 7,9 C 33,6 km/h
SW (5 Bft)
Durchschnitt _ 6,7 C 14,2 C 6,4 C 6,3 C 5,4 C 0,0 C 77 % 81 % 1 % 1011,6 hPa #0,7 l/m 7,6 km/h (2 Bft) S - #0 min. 0,0 UV-I 2,8 C 4,0 C 10,4 km/h (2 Bft)
2014 www.wetterstation-wechselburg.de